星链-11338 (STARLINK-11338)

导读

STARLINK-11338是美国SpaceX星链互联网卫星星座的一员,于2024年10月15日发射入轨,作为星链低轨卫星组网的补充卫星,它将为全球范围偏远地区、高速移动载具及海上平台等提供低延迟高速宽带互联网服务,进一步完善星链星座的覆盖密度与服务稳定性。

基本信息
目录编号:
61534
目录名称:
STARLINK-11338
国际标识:
2024-184C
轨道中心:
EARTH
卫星名称:
星链-11338
卫星全名:
星链-11338 (STARLINK-11338)
卫星状态:
在轨 (已飞行651 天)
发射日期:
2024-10-15 UTC
国别 :
美国 (US)
星等 :
--
轨道信息
数据来源 国际轨道数据
星历时间: 2026-07-27T12:02:24+0800
20小时前
查看轨道信息
半长轴: 6737.882km
偏心率: 0.0001197
轨道倾角: 53.157°
近地点辐角 73.303°
升交点赤经 268.712°
平近点角 286.812°
近地点: 358.938km
远地点: 360.552km
周期: 91.737分钟
每日圈数: 15.697038
详细信息
固有亮度:
5
最大亮度:
2.5
卫星平台:
Starlink V1.0
覆盖范围:
全球
运营商:
太空探索技术公司
运营商所在国:
美国
制造商(研发单位):
太空探索技术公司
制造商所在国:
美国
使用方式:
暂无
卫星简介
Starlink 计划是 SpaceX 推出的全球卫星互联网项目,通过发射低轨道卫星,为全球尤其是偏远地区提供高速、低延迟的互联网服务。自 2019 年起,Starlink 已部署数千颗卫星,旨在缩小全球数字鸿沟,推动互联网普及。该项目还为军事、航空等行业提供通信支持,带来广泛经济效益。
2D轨道图
3D轨道图
轨道高度分析图
轨道倾角分析图
轨道综合分析图
查看轨道综合分析图